New Bedford, MA

9:35 AM EDT on March 29, 2017 (GMT -0400)
New Bedford Regional

Weather History for KEWB - March, 2013

Change the Weather History Date:

Friday, March 22, 2013

  Actual Average Record
Temperature  
Mean Temperature 32 °F -  
Max Temperature 39 °F 46 °F 73 °F (2012)
Min Temperature 25 °F 32 °F 12 °F (1988)
Degree Days  
Heating Degree Days 33    
Moisture  
Dew Point 21 °F    
Average Humidity 65    
Maximum Humidity 93    
Minimum Humidity 41    
Precipitation  
Precipitation 0.00 in - - ()
Sea Level Pressure  
Sea Level Pressure 29.66 in    
Wind  
Wind Speed 7 mph (WNW)    
Max Wind Speed 20 mph    
Max Gust Speed 30 mph    
Visibility 8 miles    
Events Snow    
Averages and records for this station are not official NWS values.
T = Trace of Precipitation, MM = Missing Value Source: NWS Daily Summary

Daily Weather History Graph

Daily Weather History Graph

Search for Another Location

Airport or City:

Trip Planner

Search our weather history database for the weather conditions in past years. The results will help you decide how hot, cold, wet, or windy it might be!

Date:

Astronomy

Mar. 22, 2013 Rise Set
Actual Time 6:43 AM EDT 6:58 PM EDT
Civil Twilight 6:15 AM EDT 7:26 PM EDT
Nautical Twilight 5:43 AM EDT 7:58 PM EDT
Astronomical Twilight 5:09 AM EDT 8:32 PM EDT
Moon 2:19 PM EDT (3/22) 3:45 AM EDT (3/22)
Length of Visible Light 13h 10m
Length of Day
12h 15m
Waxing Gibbous, 77% of the Moon is Illuminated
Mar 22
Waxing Gibbous
Mar 27
Full
Apr 3
Last Quarter
Apr 10
New
Apr 18
First Quarter

Hourly Weather History & Observations

Time (EDT) Temp. Windchill Dew Point Humidity Pressure Visibility Wind Dir Wind Speed Gust Speed Precip Events Conditions
12:33 AM 30.2 °F 24.3 °F 28.4 °F 93% 29.61 in 0.8 mi WNW 5.8 mph - 0.00 in Snow Light Snow
12:41 AM 30.2 °F 25.4 °F 28.4 °F 93% 29.61 in 1.8 mi WNW 4.6 mph - 0.00 in Snow Light Snow
12:48 AM 30.2 °F 25.4 °F 28.4 °F 93% 29.61 in 2.5 mi WNW 4.6 mph - 0.00 in Snow Light Snow
12:53 AM 30.0 °F 25.2 °F 28.0 °F 92% 29.61 in 2.5 mi WNW 4.6 mph - 0.00 in Snow Light Snow
1:00 AM 30.2 °F 26.7 °F 28.4 °F 93% 29.61 in 4.0 mi WNW 3.5 mph - 0.00 in Snow Light Snow
1:53 AM 30.0 °F 24.1 °F 26.1 °F 85% 29.62 in 4.0 mi NW 5.8 mph - 0.00 in Snow Light Snow
2:53 AM 30.0 °F 25.2 °F 24.1 °F 79% 29.61 in 10.0 mi NW 4.6 mph - 0.00 in   Overcast
3:53 AM 28.9 °F 22.8 °F 21.9 °F 75% 29.60 in 10.0 mi WNW 5.8 mph - N/A   Overcast
4:53 AM 28.9 °F 21.9 °F 21.9 °F 75% 29.61 in 10.0 mi WNW 6.9 mph - N/A   Overcast
5:53 AM 28.0 °F 21.7 °F 21.0 °F 75% 29.61 in 10.0 mi WNW 5.8 mph - N/A   Mostly Cloudy
6:53 AM 26.1 °F 19.4 °F 19.9 °F 78% 29.63 in 10.0 mi WNW 5.8 mph - N/A   Mostly Cloudy
7:53 AM 25.0 °F 18.1 °F 18.0 °F 75% 29.66 in 10.0 mi West 5.8 mph - N/A   Clear
8:53 AM 30.0 °F 21.1 °F 19.0 °F 64% 29.68 in 10.0 mi WNW 10.4 mph - N/A   Clear
9:53 AM 32.0 °F 24.2 °F 19.9 °F 61% 29.68 in 10.0 mi WNW 9.2 mph - N/A   Clear
10:53 AM 34.0 °F 26.0 °F 19.0 °F 54% 29.68 in 10.0 mi West 10.4 mph - N/A   Clear
11:53 AM 37.0 °F 29.3 °F 17.1 °F 44% 29.68 in 10.0 mi WNW 11.5 mph 16.1 mph N/A   Clear
12:53 PM 37.0 °F 29.8 °F 16.0 °F 42% 29.67 in 10.0 mi WNW 10.4 mph 18.4 mph N/A   Clear
1:53 PM 37.0 °F 28.5 °F 17.1 °F 44% 29.66 in 10.0 mi West 13.8 mph 18.4 mph N/A   Mostly Cloudy
2:53 PM 37.9 °F 29.6 °F 17.1 °F 43% 29.66 in 10.0 mi WNW 13.8 mph 18.4 mph N/A   Overcast
3:53 PM 39.0 °F 30.6 °F 18.0 °F 43% 29.66 in 10.0 mi WNW 15.0 mph 19.6 mph N/A   Mostly Cloudy
4:53 PM 39.9 °F 32.1 °F 18.0 °F 41% 29.67 in 10.0 mi WNW 13.8 mph 23.0 mph N/A   Mostly Cloudy
5:53 PM 37.9 °F 30.0 °F 19.0 °F 47% 29.68 in 10.0 mi West 12.7 mph 19.6 mph N/A   Mostly Cloudy
6:53 PM 37.0 °F 31.6 °F 19.9 °F 50% 29.70 in 10.0 mi WNW 6.9 mph - N/A   Mostly Cloudy
7:53 PM 37.0 °F 31.6 °F 19.9 °F 50% 29.73 in 10.0 mi West 6.9 mph - N/A   Overcast
8:53 PM 36.0 °F 27.1 °F 19.9 °F 52% 29.74 in 10.0 mi West 13.8 mph 20.7 mph N/A   Overcast
9:53 PM 36.0 °F 28.0 °F 21.0 °F 55% 29.75 in 10.0 mi West 11.5 mph 19.6 mph N/A   Mostly Cloudy
10:53 PM 35.1 °F 24.1 °F 19.9 °F 54% 29.75 in 10.0 mi WNW 19.6 mph 29.9 mph N/A   Mostly Cloudy
11:53 PM 32.0 °F 26.4 °F 19.9 °F 61% 29.76 in 10.0 mi WNW 5.8 mph - N/A   Partly Cloudy